LQMO

Mostar International Airport

Airport
ICAO code
LQMO
IATA Code
OMO
Summary
ICAO Region
EUR
ICAO Territory
Location

Ortijes, Bosnia and Hertzegovina

Serving
Mostar
Elevation
156 ft
Coordinates
43° 16' 55" N , 17° 50' 38" E
KCC
Metar
LQMO 160800Z VRB02KT CAVOK 21/12 Q1005

Mostar International Airport is an airport near Mostar, Bosnia and Herzegovina, situated in the village of Ortiješ, 4 NM southeast of Mostar.

Climatology

Humid subtropical climate (Köppen climate classification Cfa)

Runways

Designator Length Width Surface Rops
16/34 2400 48 ASP No/No

Airport map

Aerial View

SKYbrary Partners:

Safety knowledge contributed by: